Cloud_Cover
100 99 100 100 100 100 100 98 86 67 23 98 100 100 100 100 100 100 100 100 100 93 85 100 100 92 100 84 100 95 100 100 100 100 100 96 100 100 69 97 21 48 5 13 4 3 99
100 100 100 87 100 100 100 100 100 91 89 94 25 80 100 100 100 100 100 100 100 100 97 91 100 100 70 89 100 87 95 100 100 100 100 100 100 99 88 97 94 99 5 68 31 3 0
57 100 100 100 100 100 100 100 100 100 100 100 84 98 91 100 100 100 100 100 100 100 100 96 100 100 100 100 100 100 100 100 100 100 100 100 100 100 100 100 100 100 16 40 100 100 5
23 10 100 98 100 100 100 100 100 100 100 100 78 100 100 100 100 100 100 100 100 100 100 100 100 100 69 100 100 100 100 100 100 100 100 100 97 100 100 100 100 100 42 82 100 56 5
90 100 52 47 100 100 100 100 100 100 100 100 100 100 100 100 100 100 100 100 100 100 100 100 100 96 15 100 100 100 100 100 100 100 100 100 9 83 100 100 100 100 99 56 83 12 57
100 96 40 75 27 73 93 100 100 100 100 100 100 100 100 100 100 100 100 86 100 100 100 100 100 100 21 100 100 100 100 100 100 100 100 100 40 8 16 87 100 100 77 10 100 99 13
40 100 46 100 90 6 47 100 100 100 100 100 100 100 100 100 100 100 100 100 100 100 100 100 100 100 100 97 61 100 100 99 100 100 100 100 96 0 16 98 100 100 100 28 96 100 6
93 66 12 58 46 82 75 100 100 96 100 100 100 90 100 100 100 100 100 100 100 100 100 100 100 100 100 100 81 100 100 99 59 96 100 100 6 4 100 100 64 57 100 100 100 100 100
100 89 92 12 46 100 100 54 93 100 100 100 100 100 100 100 100 100 100 100 100 100 100 100 100 100 100 100 86 100 100 100 100 100 100 100 100 97 61 9 23 73 100 100 100 100 100
30 58 100 100 100 100 100 100 89 81 100 100 100 100 100 100 85 97 100 100 100 100 100 70 94 98 100 100 43 100 100 100 100 100 100 100 100 100 77 91 100 100 100 100 100 100 100
96 100 100 100 100 100 100 100 97 10 9 100 100 100 100 100 100 100 100 100 100 100 100 5 9 28 51 77 90 72 100 100 100 100 100 100 100 100 100 100 99 89 100 100 100 100 100
38 100 100 100 100 100 97 97 100 100 49 42 98 100 100 100 100 100 100 100 100 100 100 61 72 71 100 100 99 68 94 98 100 100 100 100 99 100 100 100 100 100 94 87 31 94 100
28 17 100 100 100 100 100 100 98 98 100 78 100 100 97 100 100 100 100 100 100 100 91 10 64 100 100 100 100 100 100 100 100 100 100 100 91 98 100 100 100 100 100 100 27 13 93
5 5 11 79 100 100 100 100 100 100 95 7 22 83 13 60 100 100 100 100 100 100 46 100 87 66 100 100 100 100 100 100 91 91 100 100 94 91 99 99 100 100 100 94 40 17 96
5 5 5 5 5 20 87 100 100 100 100 100 100 84 98 64 100 100 100 100 100 100 100 69 95 62 100 100 99 100 100 94 26 52 100 100 100 100 100 100 100 100 45 93 100 14 5
5 5 5 5 4 5 9 99 100 100 100 100 100 100 100 100 100 100 100 82 100 100 98 100 91 76 100 100 100 100 100 84 18 6 100 100 100 100 100 100 100 84 100 100 58 5 65
5 5 5 5 5 3 5 82 100 100 100 100 100 100 100 100 100 100 100 54 5 100 100 100 100 100 100 98 100 100 100 35 64 97 98 100 100 100 100 100 100 100 85 98 88 28 5
5 5 5 5 4 5 24 5 100 100 100 100 100 100 100 99 100 100 100 0 0 0 21 100 100 100 100 99 100 100 100 5 73 100 100 88 99 100 100 100 100 100 100 100 86 2 42
5 5 5 5 5 5 28 7 100 100 100 100 100 100 68 100 99 100 39 14 3 0 0 0 10 96 100 100 100 100 100 82 100 100 18 54 100 100 100 100 100 100 100 99 66 100 5
5 5 5 5 5 5 31 43 100 100 100 90 100 100 100 100 15 34 100 58 78 4 1 0 0 0 48 98 100 100 100 100 100 100 100 100 100 100 79 99 99 100 100 100 100 100 100
5 5 5 5 5 57 86 92 100 100 100 100 100 100 69 93 100 94 41 33 100 94 5 3 2 0 0 69 100 100 100 100 100 100 100 100 100 100 92 100 100 100 100 100 100 100 100
5 5 5 5 5 32 5 70 100 100 100 100 100 100 100 74 91 100 100 100 95 5 5 5 2 0 0 0 35 100 98 100 100 100 100 100 100 100 100 87 100 100 100 100 100 100 100
5 5 5 4 5 5 5 29 93 100 100 100 100 100 100 100 100 100 67 54 91 96 10 5 0 10 94 0 0 91 100 100 100 100 100 100 100 100 100 100 100 100 100 100 100 100 100
5 5 5 5 5 5 5 5 71 100 100 100 100 100 100 100 100 91 100 100 100 59 3 32 90 100 42 92 0 1 100 100 100 100 100 100 100 100 100 100 100 100 100 100 100 100 100
5 5 5 5 5 5 5 5 6 100 100 100 100 100 100 100 100 100 100 100 100 100 100 100 100 100 100 99 5 2 77 100 100 100 100 100 100 100 100 100 100 100 100 100 100 100 100
34 5 5 5 5 5 5 5 5 94 100 100 100 100 100 100 100 100 100 100 71 62 100 100 100 100 100 100 98 52 5 15 72 93 100 100 100 100 100 100 100 100 100 100 100 100 100
5 5 5 5 5 5 5 5 5 25 100 100 100 100 100 100 100 100 100 100 100 100 100 100 88 100 100 38 100 99 100 98 100 100 100 100 100 100 100 100 100 99 100 100 100 100 100
5 5 5 5 5 5 5 5 18 71 100 100 100 100 100 100 100 100 100 100 100 100 100 100 100 100 100 64 72 99 60 9 98 100 100 100 100 100 100 100 100 100 100 100 100 100 100
5 5 5 5 5 5 5 13 96 100 100 100 99 98 100 100 100 100 100 100 100 100 100 100 51 25 5 19 95 34 6 100 88 94 100 100 100 100 100 100 100 100 99 100 98 100 100